Location: Peterborough
(44.3091°N, 78.3197°W)
Time: 17:46:00
(UTC-04:00)

Transit 4A - Pass Details

Date: 24 March 2023
Orbit: 864 x 980 km, 66.8° (Epoch: 04 June)

Event Time Altitude Azimuth Distance (km) Brightness Sun altitude
Rises 15:52:14 0° 330° (NNW) 3,553 10.9 35.5°
Reaches altitude 10° 15:54:48 10° 336° (NNW) 2,626 10.2 35.2°
Maximum altitude 16:00:47 53° 52° (NE) 1,151 8.5 34.4°
Drops below altitude 10° 16:06:54 10° 129° (SE) 2,688 10.3 33.5°
Sets 16:09:33 0° 134° (SE) 3,643 10.9 33.1°
